Time,TemperatureF,DewpointF,PressureIn,WindDirection,WindDirectionDegrees,WindSpeedMPH,WindSpeedGustMPH,Humidity,HourlyPrecipIn,Conditions,Clouds,dailyrainin,SoftwareType,DateUTC
2013-01-05 00:00:00,34.9,20.4,29.97,WNW,284,11.0,17.0,55,0.00,,,0.00,VWS V14.01,2013-01-05 05:00:00,
2013-01-05 00:02:00,34.9,20.4,29.97,West,275,11.0,20.0,55,0.00,,,0.00,VWS V14.01,2013-01-05 05:02:00,
2013-01-05 00:03:00,34.9,20.4,29.97,WSW,249,7.0,20.0,55,0.00,,,0.00,VWS V14.01,2013-01-05 05:03:00,
2013-01-05 00:07:00,34.9,20.8,29.97,West,270,12.0,15.0,56,0.00,,,0.00,VWS V14.01,2013-01-05 05:07:00,
2013-01-05 00:09:00,34.9,20.8,29.97,West,259,10.0,15.0,56,0.00,,,0.00,VWS V14.01,2013-01-05 05:09:00,
2013-01-05 00:13:00,34.9,20.8,29.97,West,267,5.0,17.0,56,0.00,,,0.00,VWS V14.01,2013-01-05 05:13:00,
2013-01-05 00:15:00,34.7,20.6,29.97,West,259,11.0,17.0,56,0.00,,,0.00,VWS V14.01,2013-01-05 05:15:00,
2013-01-05 00:18:00,34.7,20.6,29.98,WNW,286,8.0,17.0,56,0.00,,,0.00,VWS V14.01,2013-01-05 05:18:00,
2013-01-05 00:21:00,34.6,21.0,29.98,West,261,6.0,17.0,57,0.00,,,0.00,VWS V14.01,2013-01-05 05:21:00,
2013-01-05 00:22:00,34.6,21.0,29.98,WNW,291,6.0,17.0,57,0.00,,,0.00,VWS V14.01,2013-01-05 05:22:00,
2013-01-05 00:25:00,34.6,21.0,29.98,West,279,4.0,17.0,57,0.00,,,0.00,VWS V14.01,2013-01-05 05:25:00,
2013-01-05 00:27:00,34.6,21.0,29.98,West,262,5.0,17.0,57,0.00,,,0.00,VWS V14.01,2013-01-05 05:27:00,
2013-01-05 00:29:00,34.4,20.8,29.98,WNW,286,9.0,17.0,57,0.00,,,0.00,VWS V14.01,2013-01-05 05:29:00,
2013-01-05 00:30:00,34.4,20.8,29.98,WNW,286,0.0,17.0,57,0.00,,,0.00,VWS V14.01,2013-01-05 05:30:00,
2013-01-05 00:34:00,34.3,20.7,29.98,WNW,286,1.0,7.0,57,0.00,,,0.00,VWS V14.01,2013-01-05 05:34:00,
2013-01-05 00:35:00,34.3,21.1,29.98,West,281,3.0,7.0,58,0.00,,,0.00,VWS V14.01,2013-01-05 05:35:00,
2013-01-05 00:40:00,34.1,20.9,29.98,WNW,283,0.0,11.0,58,0.00,,,0.00,VWS V14.01,2013-01-05 05:40:00,
2013-01-05 00:43:00,34.0,20.8,29.98,West,277,5.0,11.0,58,0.00,,,0.00,VWS V14.01,2013-01-05 05:43:00,
2013-01-05 00:44:00,34.0,20.8,29.98,West,273,7.0,11.0,58,0.00,,,0.00,VWS V14.01,2013-01-05 05:44:00,
2013-01-05 00:48:00,33.8,21.0,29.98,West,275,0.0,11.0,59,0.00,,,0.00,VWS V14.01,2013-01-05 05:48:00,
2013-01-05 00:49:00,33.8,21.0,29.98,WNW,286,4.0,11.0,59,0.00,,,0.00,VWS V14.01,2013-01-05 05:49:00,
2013-01-05 00:50:00,33.8,21.0,29.98,West,279,3.0,11.0,59,0.00,,,0.00,VWS V14.01,2013-01-05 05:50:00,
2013-01-05 00:53:00,33.7,20.9,29.98,West,260,5.0,12.0,59,0.00,,,0.00,VWS V14.01,2013-01-05 05:53:00,
2013-01-05 00:54:00,33.7,20.9,29.98,WSW,255,5.0,12.0,59,0.00,,,0.00,VWS V14.01,2013-01-05 05:54:00,
2013-01-05 00:58:00,33.5,20.7,29.98,WNW,283,5.0,12.0,59,0.00,,,0.00,VWS V14.01,2013-01-05 05:58:00,
2013-01-05 01:00:00,33.4,20.6,29.98,West,277,7.0,12.0,59,0.00,,,0.00,VWS V14.01,2013-01-05 06:00:00,
2013-01-05 01:02:00,33.4,20.6,29.98,West,275,5.0,12.0,59,0.00,,,0.00,VWS V14.01,2013-01-05 06:02:00,
2013-01-05 01:03:00,33.4,20.6,29.98,West,261,7.0,12.0,59,0.00,,,0.00,VWS V14.01,2013-01-05 06:03:00,
2013-01-05 01:04:00,33.4,20.6,29.98,West,275,0.0,11.0,59,0.00,,,0.00,VWS V14.01,2013-01-05 06:04:00,
2013-01-05 01:09:00,33.2,20.8,29.98,West,268,9.0,11.0,60,0.00,,,0.00,VWS V14.01,2013-01-05 06:09:00,
2013-01-05 01:10:00,33.2,20.8,29.98,WNW,292,4.0,11.0,60,0.00,,,0.00,VWS V14.01,2013-01-05 06:10:00,
2013-01-05 01:14:00,33.1,20.7,29.98,West,264,1.0,12.0,60,0.00,,,0.00,VWS V14.01,2013-01-05 06:14:00,
2013-01-05 01:17:00,33.1,20.7,29.98,WNW,283,2.0,12.0,60,0.00,,,0.00,VWS V14.01,2013-01-05 06:17:00,
2013-01-05 01:20:00,32.9,20.5,29.98,West,263,0.0,12.0,60,0.00,,,0.00,VWS V14.01,2013-01-05 06:20:00,
2013-01-05 01:22:00,32.9,20.9,29.98,West,279,5.0,12.0,61,0.00,,,0.00,VWS V14.01,2013-01-05 06:22:00,
2013-01-05 01:24:00,32.9,20.9,29.98,WSW,250,5.0,12.0,61,0.00,,,0.00,VWS V14.01,2013-01-05 06:24:00,
2013-01-05 01:25:00,32.9,20.9,29.98,West,266,4.0,12.0,61,0.00,,,0.00,VWS V14.01,2013-01-05 06:25:00,
2013-01-05 01:28:00,32.8,20.9,29.98,West,264,5.0,12.0,61,0.00,,,0.00,VWS V14.01,2013-01-05 06:28:00,
2013-01-05 01:29:00,32.8,20.9,29.98,West,266,3.0,12.0,61,0.00,,,0.00,VWS V14.01,2013-01-05 06:29:00,
2013-01-05 01:30:00,32.7,20.8,29.99,West,281,5.0,12.0,61,0.00,,,0.00,VWS V14.01,2013-01-05 06:30:00,
2013-01-05 01:33:00,32.7,20.8,29.99,WNW,286,3.0,5.0,61,0.00,,,0.00,VWS V14.01,2013-01-05 06:33:00,
2013-01-05 01:36:00,32.7,20.8,29.99,West,272,2.0,8.0,61,0.00,,,0.00,VWS V14.01,2013-01-05 06:36:00,
2013-01-05 01:37:00,32.7,20.8,29.99,West,271,5.0,9.0,61,0.00,,,0.00,VWS V14.01,2013-01-05 06:37:00,
2013-01-05 01:42:00,32.5,20.6,29.99,West,263,6.0,10.0,61,0.00,,,0.00,VWS V14.01,2013-01-05 06:42:00,
2013-01-05 01:43:00,32.5,20.6,29.99,West,278,0.0,10.0,61,0.00,,,0.00,VWS V14.01,2013-01-05 06:43:00,
2013-01-05 01:48:00,32.4,20.5,30.00,West,281,5.0,10.0,61,0.00,,,0.00,VWS V14.01,2013-01-05 06:48:00,
2013-01-05 01:53:00,32.2,20.3,30.00,West,273,4.0,10.0,61,0.00,,,0.00,VWS V14.01,2013-01-05 06:53:00,
2013-01-05 01:55:00,32.2,20.3,30.00,West,267,0.0,10.0,61,0.00,,,0.00,VWS V14.01,2013-01-05 06:55:00,
2013-01-05 01:57:00,32.2,20.3,30.00,West,266,8.0,10.0,61,0.00,,,0.00,VWS V14.01,2013-01-05 06:57:00,
2013-01-05 01:58:00,32.2,20.3,30.00,West,277,7.0,10.0,61,0.00,,,0.00,VWS V14.01,2013-01-05 06:58:00,
2013-01-05 02:00:00,32.2,20.3,30.00,West,276,4.0,11.0,61,0.00,,,0.00,VWS V14.01,2013-01-05 07:00:00,
2013-01-05 02:03:00,32.2,20.3,30.00,West,275,0.0,4.0,61,0.00,,,0.00,VWS V14.01,2013-01-05 07:03:00,
2013-01-05 02:04:00,32.2,20.3,30.00,West,267,4.0,7.0,61,0.00,,,0.00,VWS V14.01,2013-01-05 07:04:00,
2013-01-05 02:05:00,32.2,20.3,30.00,West,266,4.0,7.0,61,0.00,,,0.00,VWS V14.01,2013-01-05 07:05:00,
2013-01-05 02:08:00,32.2,20.3,30.00,WNW,283,3.0,9.0,61,0.00,,,0.00,VWS V14.01,2013-01-05 07:08:00,
2013-01-05 02:10:00,32.2,19.9,30.00,WNW,297,3.0,9.0,60,0.00,,,0.00,VWS V14.01,2013-01-05 07:10:00,
2013-01-05 02:11:00,32.2,19.9,30.00,WNW,282,3.0,9.0,60,0.00,,,0.00,VWS V14.01,2013-01-05 07:11:00,
2013-01-05 02:15:00,32.5,20.2,30.00,West,272,14.0,14.0,60,0.00,,,0.00,VWS V14.01,2013-01-05 07:15:00,
2013-01-05 02:16:00,32.5,19.8,30.00,NW,315,3.0,14.0,59,0.00,,,0.00,VWS V14.01,2013-01-05 07:16:00,
2013-01-05 02:18:00,32.7,20.0,30.01,West,275,11.0,14.0,59,0.00,,,0.00,VWS V14.01,2013-01-05 07:18:00,
2013-01-05 02:20:00,32.8,20.1,30.01,NW,304,9.0,14.0,59,0.00,,,0.00,VWS V14.01,2013-01-05 07:20:00,
2013-01-05 02:23:00,32.9,19.8,30.01,West,281,5.0,14.0,58,0.00,,,0.00,VWS V14.01,2013-01-05 07:23:00,
2013-01-05 02:25:00,33.1,19.9,30.01,WNW,293,10.0,14.0,58,0.00,,,0.00,VWS V14.01,2013-01-05 07:25:00,
2013-01-05 02:27:00,33.2,19.6,30.01,WNW,289,5.0,14.0,57,0.00,,,0.00,VWS V14.01,2013-01-05 07:27:00,
2013-01-05 02:28:00,33.2,19.6,30.01,West,276,3.0,14.0,57,0.00,,,0.00,VWS V14.01,2013-01-05 07:28:00,
2013-01-05 02:30:00,33.4,19.8,30.01,WNW,297,5.0,14.0,57,0.00,,,0.00,VWS V14.01,2013-01-05 07:30:00,
2013-01-05 02:32:00,33.4,19.8,30.02,WNW,284,4.0,14.0,57,0.00,,,0.00,VWS V14.01,2013-01-05 07:32:00,
2013-01-05 02:33:00,33.4,19.8,30.02,NW,323,10.0,14.0,57,0.00,,,0.00,VWS V14.01,2013-01-05 07:33:00,
2013-01-05 02:35:00,33.4,19.8,30.02,WNW,298,2.0,10.0,57,0.00,,,0.00,VWS V14.01,2013-01-05 07:35:00,
2013-01-05 02:38:00,33.2,19.6,30.02,West,267,9.0,10.0,57,0.00,,,0.00,VWS V14.01,2013-01-05 07:38:00,
2013-01-05 02:39:00,33.2,19.6,30.02,West,279,4.0,11.0,57,0.00,,,0.00,VWS V14.01,2013-01-05 07:39:00,
2013-01-05 02:44:00,33.2,19.6,30.02,West,269,4.0,11.0,57,0.00,,,0.00,VWS V14.01,2013-01-05 07:44:00,
2013-01-05 02:46:00,33.2,19.6,30.02,West,281,9.0,12.0,57,0.00,,,0.00,VWS V14.01,2013-01-05 07:46:00,
2013-01-05 02:47:00,33.2,19.6,30.03,WNW,288,5.0,12.0,57,0.00,,,0.00,VWS V14.01,2013-01-05 07:47:00,
2013-01-05 02:49:00,33.2,19.6,30.03,NW,309,4.0,12.0,57,0.00,,,0.00,VWS V14.01,2013-01-05 07:49:00,
2013-01-05 02:51:00,33.2,19.6,30.03,WNW,288,0.0,12.0,57,0.00,,,0.00,VWS V14.01,2013-01-05 07:51:00,
2013-01-05 02:53:00,33.1,19.5,30.03,WNW,287,5.0,12.0,57,0.00,,,0.00,VWS V14.01,2013-01-05 07:53:00,
2013-01-05 02:55:00,33.1,19.5,30.03,West,277,7.0,12.0,57,0.00,,,0.00,VWS V14.01,2013-01-05 07:55:00,
2013-01-05 02:56:00,33.1,19.5,30.03,West,281,1.0,12.0,57,0.00,,,0.00,VWS V14.01,2013-01-05 07:56:00,
2013-01-05 03:00:00,32.9,19.4,30.03,West,274,0.0,12.0,57,0.00,,,0.00,VWS V14.01,2013-01-05 08:00:00,
2013-01-05 03:01:00,32.9,19.4,30.03,NW,321,7.0,12.0,57,0.00,,,0.00,VWS V14.01,2013-01-05 08:01:00,
2013-01-05 03:02:00,32.9,19.4,30.03,West,262,6.0,12.0,57,0.00,,,0.00,VWS V14.01,2013-01-05 08:02:00,
2013-01-05 03:07:00,32.8,19.3,30.03,WNW,294,0.0,8.0,57,0.00,,,0.00,VWS V14.01,2013-01-05 08:07:00,
2013-01-05 03:08:00,32.8,19.3,30.03,WNW,295,0.0,8.0,57,0.00,,,0.00,VWS V14.01,2013-01-05 08:08:00,
2013-01-05 03:10:00,32.8,19.3,30.03,WNW,284,0.0,8.0,57,0.00,,,0.00,VWS V14.01,2013-01-05 08:10:00,
2013-01-05 03:12:00,32.8,19.3,30.03,WNW,284,4.0,8.0,57,0.00,,,0.00,VWS V14.01,2013-01-05 08:12:00,
2013-01-05 03:13:00,32.7,19.2,30.03,West,275,0.0,10.0,57,0.00,,,0.00,VWS V14.01,2013-01-05 08:13:00,
2013-01-05 03:14:00,32.7,19.6,30.03,West,275,2.0,10.0,58,0.00,,,0.00,VWS V14.01,2013-01-05 08:14:00,
2013-01-05 03:15:00,32.7,19.6,30.03,WNW,287,4.0,10.0,58,0.00,,,0.00,VWS V14.01,2013-01-05 08:15:00,
2013-01-05 03:20:00,32.5,19.4,30.03,WNW,302,9.0,10.0,58,0.00,,,0.00,VWS V14.01,2013-01-05 08:20:00,
2013-01-05 03:21:00,32.5,19.4,30.03,NW,304,5.0,10.0,58,0.00,,,0.00,VWS V14.01,2013-01-05 08:21:00,
2013-01-05 03:22:00,32.7,19.6,30.03,WNW,293,4.0,10.0,58,0.00,,,0.00,VWS V14.01,2013-01-05 08:22:00,
2013-01-05 03:24:00,32.7,19.2,30.03,NW,316,0.0,10.0,57,0.00,,,0.00,VWS V14.01,2013-01-05 08:24:00,
2013-01-05 03:25:00,32.7,19.6,30.03,West,271,5.0,10.0,58,0.00,,,0.00,VWS V14.01,2013-01-05 08:25:00,
2013-01-05 03:26:00,32.7,19.6,30.03,NW,308,0.0,10.0,58,0.00,,,0.00,VWS V14.01,2013-01-05 08:26:00,
2013-01-05 03:27:00,32.5,19.4,30.03,WNW,300,7.0,10.0,58,0.00,,,0.00,VWS V14.01,2013-01-05 08:27:00,
2013-01-05 03:30:00,32.5,19.4,30.03,WNW,292,4.0,10.0,58,0.00,,,0.00,VWS V14.01,2013-01-05 08:30:00,
2013-01-05 03:32:00,32.4,19.3,30.04,WNW,285,4.0,10.0,58,0.00,,,0.00,VWS V14.01,2013-01-05 08:32:00,
2013-01-05 03:33:00,32.4,19.3,30.04,NW,314,4.0,7.0,58,0.00,,,0.00,VWS V14.01,2013-01-05 08:33:00,
2013-01-05 03:37:00,32.4,19.3,30.04,NW,314,3.0,9.0,58,0.00,,,0.00,VWS V14.01,2013-01-05 08:37:00,
2013-01-05 03:38:00,32.4,19.3,30.04,WNW,296,4.0,9.0,58,0.00,,,0.00,VWS V14.01,2013-01-05 08:38:00,
2013-01-05 03:41:00,32.4,19.3,30.04,NW,316,7.0,9.0,58,0.00,,,0.00,VWS V14.01,2013-01-05 08:41:00,
2013-01-05 03:43:00,32.4,19.3,30.04,NW,306,1.0,10.0,58,0.00,,,0.00,VWS V14.01,2013-01-05 08:43:00,
2013-01-05 03:45:00,32.2,19.1,30.04,WNW,286,9.0,10.0,58,0.00,,,0.00,VWS V14.01,2013-01-05 08:45:00,
2013-01-05 03:46:00,32.2,19.1,30.04,NW,315,3.0,10.0,58,0.00,,,0.00,VWS V14.01,2013-01-05 08:46:00,
2013-01-05 03:50:00,32.2,19.1,30.05,West,278,7.0,10.0,58,0.00,,,0.00,VWS V14.01,2013-01-05 08:50:00,
2013-01-05 03:51:00,32.2,19.1,30.05,WNW,289,5.0,11.0,58,0.00,,,0.00,VWS V14.01,2013-01-05 08:51:00,
2013-01-05 03:52:00,32.2,19.1,30.05,WNW,296,8.0,12.0,58,0.00,,,0.00,VWS V14.01,2013-01-05 08:52:00,
2013-01-05 03:54:00,32.2,19.1,30.05,WNW,296,4.0,12.0,58,0.00,,,0.00,VWS V14.01,2013-01-05 08:54:00,
2013-01-05 03:57:00,32.2,19.1,30.05,WNW,295,11.0,12.0,58,0.00,,,0.00,VWS V14.01,2013-01-05 08:57:00,
2013-01-05 03:58:00,32.2,19.1,30.05,WNW,288,8.0,13.0,58,0.00,,,0.00,VWS V14.01,2013-01-05 08:58:00,
2013-01-05 04:00:00,32.4,18.9,30.05,WNW,296,11.0,13.0,57,0.00,,,0.00,VWS V14.01,2013-01-05 09:00:00,
2013-01-05 04:02:00,32.4,18.9,30.05,NW,304,8.0,13.0,57,0.00,,,0.00,VWS V14.01,2013-01-05 09:02:00,
2013-01-05 04:03:00,32.4,18.9,30.05,WNW,294,6.0,13.0,57,0.00,,,0.00,VWS V14.01,2013-01-05 09:03:00,
2013-01-05 04:08:00,32.2,18.7,30.05,West,277,8.0,12.0,57,0.00,,,0.00,VWS V14.01,2013-01-05 09:08:00,
2013-01-05 04:09:00,32.2,18.7,30.05,WNW,297,2.0,12.0,57,0.00,,,0.00,VWS V14.01,2013-01-05 09:09:00,
2013-01-05 04:10:00,32.2,18.7,30.05,WNW,298,8.0,12.0,57,0.00,,,0.00,VWS V14.01,2013-01-05 09:10:00,
2013-01-05 04:14:00,32.2,18.7,30.05,WNW,291,3.0,12.0,57,0.00,,,0.00,VWS V14.01,2013-01-05 09:14:00,
2013-01-05 04:15:00,32.2,18.7,30.05,NW,304,1.0,12.0,57,0.00,,,0.00,VWS V14.01,2013-01-05 09:15:00,
2013-01-05 04:18:00,32.2,18.7,30.05,WNW,293,6.0,12.0,57,0.00,,,0.00,VWS V14.01,2013-01-05 09:18:00,
2013-01-05 04:20:00,32.2,18.7,30.05,WNW,282,4.0,12.0,57,0.00,,,0.00,VWS V14.01,2013-01-05 09:20:00,
2013-01-05 04:23:00,32.2,18.7,30.05,West,276,6.0,12.0,57,0.00,,,0.00,VWS V14.01,2013-01-05 09:23:00,
2013-01-05 04:26:00,32.2,18.7,30.05,West,261,3.0,12.0,57,0.00,,,0.00,VWS V14.01,2013-01-05 09:26:00,
2013-01-05 04:27:00,32.2,18.7,30.05,WNW,298,6.0,12.0,57,0.00,,,0.00,VWS V14.01,2013-01-05 09:27:00,
2013-01-05 04:28:00,32.2,18.7,30.05,WNW,286,4.0,12.0,57,0.00,,,0.00,VWS V14.01,2013-01-05 09:28:00,
2013-01-05 04:30:00,32.2,19.1,30.05,NW,306,1.0,12.0,58,0.00,,,0.00,VWS V14.01,2013-01-05 09:30:00,
2013-01-05 04:32:00,32.2,18.7,30.07,West,281,4.0,12.0,57,0.00,,,0.00,VWS V14.01,2013-01-05 09:32:00,
2013-01-05 04:34:00,32.2,18.7,30.07,WNW,286,6.0,7.0,57,0.00,,,0.00,VWS V14.01,2013-01-05 09:34:00,
2013-01-05 04:35:00,32.2,19.1,30.07,WNW,290,3.0,7.0,58,0.00,,,0.00,VWS V14.01,2013-01-05 09:35:00,
2013-01-05 04:36:00,32.2,19.1,30.07,NW,304,5.0,9.0,58,0.00,,,0.00,VWS V14.01,2013-01-05 09:36:00,
2013-01-05 04:38:00,32.2,18.7,30.07,West,272,3.0,11.0,57,0.00,,,0.00,VWS V14.01,2013-01-05 09:38:00,
2013-01-05 04:40:00,32.2,18.7,30.07,WNW,302,4.0,11.0,57,0.00,,,0.00,VWS V14.01,2013-01-05 09:40:00,
2013-01-05 04:41:00,32.2,18.7,30.07,NW,307,1.0,11.0,57,0.00,,,0.00,VWS V14.01,2013-01-05 09:41:00,
2013-01-05 04:44:00,32.2,18.7,30.07,WNW,288,4.0,13.0,57,0.00,,,0.00,VWS V14.01,2013-01-05 09:44:00,
2013-01-05 04:45:00,32.2,18.7,30.07,WNW,300,8.0,13.0,57,0.00,,,0.00,VWS V14.01,2013-01-05 09:45:00,
2013-01-05 04:46:00,32.2,18.7,30.07,West,277,6.0,13.0,57,0.00,,,0.00,VWS V14.01,2013-01-05 09:46:00,
2013-01-05 04:48:00,32.2,18.7,30.08,WNW,288,7.0,13.0,57,0.00,,,0.00,VWS V14.01,2013-01-05 09:48:00,
2013-01-05 04:51:00,32.2,18.7,30.08,WNW,286,7.0,13.0,57,0.00,,,0.00,VWS V14.01,2013-01-05 09:51:00,
2013-01-05 04:53:00,32.2,18.7,30.08,West,273,2.0,13.0,57,0.00,,,0.00,VWS V14.01,2013-01-05 09:53:00,
2013-01-05 04:54:00,32.2,18.7,30.08,West,279,3.0,13.0,57,0.00,,,0.00,VWS V14.01,2013-01-05 09:54:00,
2013-01-05 04:57:00,32.2,18.7,30.08,West,275,6.0,13.0,57,0.00,,,0.00,VWS V14.01,2013-01-05 09:57:00,
2013-01-05 04:58:00,32.2,18.7,30.08,West,279,3.0,13.0,57,0.00,,,0.00,VWS V14.01,2013-01-05 09:58:00,
2013-01-05 04:59:00,32.2,18.7,30.08,West,278,6.0,13.0,57,0.00,,,0.00,VWS V14.01,2013-01-05 09:59:00,
2013-01-05 05:00:00,32.1,18.6,30.09,West,279,2.0,13.0,57,0.00,,,0.00,VWS V14.01,2013-01-05 10:00:00,
2013-01-05 05:01:00,32.2,18.7,30.08,West,269,5.0,13.0,57,0.00,,,0.00,VWS V14.01,2013-01-05 10:01:00,
2013-01-05 05:03:00,32.1,18.6,30.09,West,279,2.0,13.0,57,0.00,,,0.00,VWS V14.01,2013-01-05 10:03:00,
2013-01-05 05:06:00,32.1,18.6,30.09,West,268,8.0,11.0,57,0.00,,,0.00,VWS V14.01,2013-01-05 10:06:00,
2013-01-05 05:08:00,32.1,19.0,30.09,WNW,293,5.0,12.0,58,0.00,,,0.00,VWS V14.01,2013-01-05 10:08:00,
2013-01-05 05:10:00,31.9,18.8,30.09,WNW,284,4.0,12.0,58,0.00,,,0.00,VWS V14.01,2013-01-05 10:10:00,
2013-01-05 05:13:00,31.9,18.8,30.09,NW,306,8.0,12.0,58,0.00,,,0.00,VWS V14.01,2013-01-05 10:13:00,
2013-01-05 05:18:00,31.9,18.8,30.10,WNW,284,8.0,12.0,58,0.00,,,0.00,VWS V14.01,2013-01-05 10:18:00,
2013-01-05 05:19:00,31.9,18.8,30.10,WNW,283,6.0,12.0,58,0.00,,,0.00,VWS V14.01,2013-01-05 10:19:00,
2013-01-05 05:20:00,31.9,18.8,30.10,WNW,298,6.0,12.0,58,0.00,,,0.00,VWS V14.01,2013-01-05 10:20:00,
2013-01-05 05:23:00,32.1,19.0,30.10,WNW,282,0.0,12.0,58,0.00,,,0.00,VWS V14.01,2013-01-05 10:23:00,
2013-01-05 05:24:00,31.9,18.8,30.10,WNW,284,5.0,12.0,58,0.00,,,0.00,VWS V14.01,2013-01-05 10:24:00,
2013-01-05 05:26:00,31.9,18.8,30.10,WNW,288,7.0,12.0,58,0.00,,,0.00,VWS V14.01,2013-01-05 10:26:00,
2013-01-05 05:27:00,31.9,18.8,30.10,WSW,255,3.0,12.0,58,0.00,,,0.00,VWS V14.01,2013-01-05 10:27:00,
2013-01-05 05:30:00,31.9,18.4,30.10,West,276,5.0,13.0,57,0.00,,,0.00,VWS V14.01,2013-01-05 10:30:00,
2013-01-05 05:32:00,31.9,18.4,30.10,WNW,298,4.0,13.0,57,0.00,,,0.00,VWS V14.01,2013-01-05 10:32:00,
2013-01-05 05:34:00,31.9,18.4,30.11,WNW,283,1.0,9.0,57,0.00,,,0.00,VWS V14.01,2013-01-05 10:34:00,
2013-01-05 05:37:00,31.9,18.4,30.11,West,274,7.0,15.0,57,0.00,,,0.00,VWS V14.01,2013-01-05 10:37:00,
2013-01-05 05:39:00,31.9,18.4,30.11,WNW,298,11.0,15.0,57,0.00,,,0.00,VWS V14.01,2013-01-05 10:39:00,
2013-01-05 05:43:00,31.9,18.4,30.11,West,278,5.0,15.0,57,0.00,,,0.00,VWS V14.01,2013-01-05 10:43:00,
2013-01-05 05:45:00,32.1,18.6,30.11,WNW,293,0.0,15.0,57,0.00,,,0.00,VWS V14.01,2013-01-05 10:45:00,
2013-01-05 05:47:00,32.1,18.6,30.12,WNW,284,10.0,15.0,57,0.00,,,0.00,VWS V14.01,2013-01-05 10:47:00,
2013-01-05 05:48:00,32.1,18.6,30.12,NW,322,7.0,15.0,57,0.00,,,0.00,VWS V14.01,2013-01-05 10:48:00,
2013-01-05 05:53:00,32.1,18.6,30.12,West,279,5.0,15.0,57,0.00,,,0.00,VWS V14.01,2013-01-05 10:53:00,
2013-01-05 05:56:00,31.9,18.4,30.12,West,266,8.0,15.0,57,0.00,,,0.00,VWS V14.01,2013-01-05 10:56:00,
2013-01-05 05:58:00,31.9,18.4,30.12,WNW,283,14.0,15.0,57,0.00,,,0.00,VWS V14.01,2013-01-05 10:58:00,
2013-01-05 06:00:00,31.9,18.4,30.12,NW,304,4.0,15.0,57,0.00,,,0.00,VWS V14.01,2013-01-05 11:00:00,
2013-01-05 06:02:00,31.9,18.4,30.12,WSW,245,6.0,15.0,57,0.00,,,0.00,VWS V14.01,2013-01-05 11:02:00,
2013-01-05 06:03:00,31.9,18.4,30.12,WNW,284,7.0,15.0,57,0.00,,,0.00,VWS V14.01,2013-01-05 11:03:00,
2013-01-05 06:08:00,31.9,18.4,30.12,WNW,294,5.0,16.0,57,0.00,,,0.00,VWS V14.01,2013-01-05 11:08:00,
2013-01-05 06:09:00,31.9,18.4,30.12,West,275,11.0,16.0,57,0.00,,,0.00,VWS V14.01,2013-01-05 11:09:00,
2013-01-05 06:12:00,31.9,18.4,30.12,NW,304,9.0,16.0,57,0.00,,,0.00,VWS V14.01,2013-01-05 11:12:00,
2013-01-05 06:13:00,31.9,18.4,30.12,WNW,291,7.0,16.0,57,0.00,,,0.00,VWS V14.01,2013-01-05 11:13:00,
2013-01-05 06:14:00,31.9,18.4,30.12,WNW,286,9.0,16.0,57,0.00,,,0.00,VWS V14.01,2013-01-05 11:14:00,
2013-01-05 06:16:00,31.9,18.4,30.12,WNW,286,6.0,16.0,57,0.00,,,0.00,VWS V14.01,2013-01-05 11:16:00,
2013-01-05 06:21:00,31.8,18.7,30.13,West,277,11.0,16.0,58,0.00,,,0.00,VWS V14.01,2013-01-05 11:21:00,
2013-01-05 06:22:00,31.8,18.7,30.13,WNW,292,11.0,16.0,58,0.00,,,0.00,VWS V14.01,2013-01-05 11:22:00,
2013-01-05 06:23:00,31.8,18.3,30.13,West,279,3.0,16.0,57,0.00,,,0.00,VWS V14.01,2013-01-05 11:23:00,
2013-01-05 06:25:00,31.9,18.4,30.13,West,276,3.0,16.0,57,0.00,,,0.00,VWS V14.01,2013-01-05 11:25:00,
2013-01-05 06:28:00,31.8,18.3,30.13,West,277,8.0,16.0,57,0.00,,,0.00,VWS V14.01,2013-01-05 11:28:00,
2013-01-05 06:30:00,31.8,18.3,30.14,WNW,284,8.0,16.0,57,0.00,,,0.00,VWS V14.01,2013-01-05 11:30:00,
2013-01-05 06:31:00,31.8,18.7,30.13,West,279,9.0,16.0,58,0.00,,,0.00,VWS V14.01,2013-01-05 11:31:00,
2013-01-05 06:34:00,31.8,18.3,30.14,West,275,5.0,8.0,57,0.00,,,0.00,VWS V14.01,2013-01-05 11:34:00,
2013-01-05 06:37:00,31.8,18.7,30.14,West,275,9.0,15.0,58,0.00,,,0.00,VWS V14.01,2013-01-05 11:37:00,
2013-01-05 06:40:00,31.8,18.3,30.14,West,272,9.0,15.0,57,0.00,,,0.00,VWS V14.01,2013-01-05 11:40:00,
2013-01-05 06:43:00,31.8,18.3,30.14,WNW,289,1.0,15.0,57,0.00,,,0.00,VWS V14.01,2013-01-05 11:43:00,
2013-01-05 06:45:00,31.8,18.7,30.14,West,276,8.0,15.0,58,0.00,,,0.00,VWS V14.01,2013-01-05 11:45:00,
2013-01-05 06:47:00,31.8,18.7,30.15,WNW,291,4.0,15.0,58,0.00,,,0.00,VWS V14.01,2013-01-05 11:47:00,
2013-01-05 06:49:00,31.8,18.7,30.15,West,275,8.0,15.0,58,0.00,,,0.00,VWS V14.01,2013-01-05 11:49:00,
2013-01-05 06:52:00,31.6,18.5,30.15,West,261,5.0,15.0,58,0.00,,,0.00,VWS V14.01,2013-01-05 11:52:00,
2013-01-05 06:55:00,31.6,18.5,30.15,West,265,6.0,15.0,58,0.00,,,0.00,VWS V14.01,2013-01-05 11:55:00,
2013-01-05 06:57:00,31.6,18.5,30.15,West,260,4.0,15.0,58,0.00,,,0.00,VWS V14.01,2013-01-05 11:57:00,
2013-01-05 06:59:00,31.6,18.5,30.15,WSW,257,5.0,15.0,58,0.00,,,0.00,VWS V14.01,2013-01-05 11:59:00,
2013-01-05 07:00:00,31.6,18.5,30.16,West,271,5.0,15.0,58,0.00,,,0.00,VWS V14.01,2013-01-05 12:00:00,
2013-01-05 07:01:00,31.6,18.5,30.15,WSW,253,7.0,15.0,58,0.00,,,0.00,VWS V14.01,2013-01-05 12:01:00,
2013-01-05 07:06:00,31.5,18.8,30.16,West,273,4.0,11.0,59,0.00,,,0.00,VWS V14.01,2013-01-05 12:06:00,
2013-01-05 07:07:00,31.5,18.8,30.16,West,269,5.0,11.0,59,0.00,,,0.00,VWS V14.01,2013-01-05 12:07:00,
2013-01-05 07:12:00,31.3,18.6,30.16,WSW,251,0.0,11.0,59,0.00,,,0.00,VWS V14.01,2013-01-05 12:12:00,
2013-01-05 07:13:00,31.3,18.6,30.16,WSW,254,8.0,11.0,59,0.00,,,0.00,VWS V14.01,2013-01-05 12:13:00,
2013-01-05 07:14:00,31.3,18.6,30.16,WSW,251,8.0,11.0,59,0.00,,,0.00,VWS V14.01,2013-01-05 12:14:00,
2013-01-05 07:19:00,31.2,18.5,30.17,WSW,249,4.0,11.0,59,0.00,,,0.00,VWS V14.01,2013-01-05 12:19:00,
2013-01-05 07:20:00,31.2,18.5,30.17,WNW,294,9.0,11.0,59,0.00,,,0.00,VWS V14.01,2013-01-05 12:20:00,
2013-01-05 07:25:00,31.2,19.0,30.17,SW,233,2.0,11.0,60,0.00,,,0.00,VWS V14.01,2013-01-05 12:25:00,
2013-01-05 07:26:00,31.2,19.0,30.17,WSW,249,4.0,11.0,60,0.00,,,0.00,VWS V14.01,2013-01-05 12:26:00,
2013-01-05 07:27:00,31.2,19.0,30.17,WSW,252,2.0,11.0,60,0.00,,,0.00,VWS V14.01,2013-01-05 12:27:00,
2013-01-05 07:30:00,31.2,19.0,30.18,SW,234,3.0,11.0,60,0.00,,,0.00,VWS V14.01,2013-01-05 12:30:00,
2013-01-05 07:31:00,31.2,19.0,30.17,WSW,255,4.0,11.0,60,0.00,,,0.00,VWS V14.01,2013-01-05 12:31:00,
2013-01-05 07:33:00,31.2,19.0,30.18,SW,234,0.0,11.0,60,0.00,,,0.00,VWS V14.01,2013-01-05 12:33:00,
2013-01-05 07:38:00,31.2,19.0,30.18,SW,227,5.0,12.0,60,0.00,,,0.00,VWS V14.01,2013-01-05 12:38:00,
2013-01-05 07:39:00,31.2,19.0,30.18,West,273,6.0,12.0,60,0.00,,,0.00,VWS V14.01,2013-01-05 12:39:00,
2013-01-05 07:44:00,31.2,19.0,30.18,WSW,252,3.0,12.0,60,0.00,,,0.00,VWS V14.01,2013-01-05 12:44:00,
2013-01-05 07:48:00,31.2,19.0,30.18,West,272,6.0,12.0,60,0.00,,,0.00,VWS V14.01,2013-01-05 12:48:00,
2013-01-05 07:49:00,31.2,19.0,30.18,West,270,0.0,12.0,60,0.00,,,0.00,VWS V14.01,2013-01-05 12:49:00,
2013-01-05 07:50:00,31.3,19.0,30.18,West,270,6.0,12.0,60,0.00,,,0.00,VWS V14.01,2013-01-05 12:50:00,
2013-01-05 07:51:00,31.3,19.0,30.18,WSW,244,9.0,13.0,60,0.00,,,0.00,VWS V14.01,2013-01-05 12:51:00,
2013-01-05 07:54:00,31.3,19.0,30.18,WNW,287,6.0,13.0,60,0.00,,,0.00,VWS V14.01,2013-01-05 12:54:00,
2013-01-05 07:56:00,31.3,19.0,30.18,WSW,257,4.0,13.0,60,0.00,,,0.00,VWS V14.01,2013-01-05 12:56:00,
2013-01-05 07:59:00,31.3,19.0,30.18,SW,230,5.0,13.0,60,0.00,,,0.00,VWS V14.01,2013-01-05 12:59:00,
2013-01-05 08:00:00,31.3,19.0,30.19,WSW,251,7.0,13.0,60,0.00,,,0.00,VWS V14.01,2013-01-05 13:00:00,
2013-01-05 08:01:00,31.3,19.0,30.18,WSW,250,6.0,13.0,60,0.00,,,0.00,VWS V14.01,2013-01-05 13:01:00,
2013-01-05 08:02:00,31.3,19.0,30.19,WSW,240,3.0,13.0,60,0.00,,,0.00,VWS V14.01,2013-01-05 13:02:00,
2013-01-05 08:04:00,31.3,19.0,30.19,West,273,3.0,8.0,60,0.00,,,0.00,VWS V14.01,2013-01-05 13:04:00,
2013-01-05 08:08:00,31.5,19.2,30.19,WNW,286,5.0,11.0,60,0.00,,,0.00,VWS V14.01,2013-01-05 13:08:00,
2013-01-05 08:09:00,31.5,19.2,30.19,West,277,8.0,11.0,60,0.00,,,0.00,VWS V14.01,2013-01-05 13:09:00,
2013-01-05 08:13:00,31.5,19.2,30.19,SW,236,3.0,12.0,60,0.00,,,0.00,VWS V14.01,2013-01-05 13:13:00,
2013-01-05 08:16:00,31.6,19.3,30.19,West,277,3.0,12.0,60,0.00,,,0.00,VWS V14.01,2013-01-05 13:16:00,
2013-01-05 08:18:00,31.6,19.3,30.20,West,263,10.0,12.0,60,0.00,,,0.00,VWS V14.01,2013-01-05 13:18:00,
2013-01-05 08:19:00,31.8,19.5,30.20,WSW,240,4.0,12.0,60,0.00,,,0.00,VWS V14.01,2013-01-05 13:19:00,
2013-01-05 08:21:00,31.8,19.5,30.20,West,259,9.0,12.0,60,0.00,,,0.00,VWS V14.01,2013-01-05 13:21:00,
2013-01-05 08:24:00,31.8,19.5,30.20,West,261,8.0,12.0,60,0.00,,,0.00,VWS V14.01,2013-01-05 13:24:00,
2013-01-05 08:26:00,31.8,19.5,30.20,WSW,245,7.0,13.0,60,0.00,,,0.00,VWS V14.01,2013-01-05 13:26:00,
2013-01-05 08:28:00,31.9,19.6,30.20,WSW,240,4.0,15.0,60,0.00,,,0.00,VWS V14.01,2013-01-05 13:28:00,
2013-01-05 08:30:00,32.1,19.8,30.21,West,267,7.0,15.0,60,0.00,,,0.00,VWS V14.01,2013-01-05 13:30:00,
2013-01-05 08:31:00,31.9,19.6,30.20,WSW,250,5.0,15.0,60,0.00,,,0.00,VWS V14.01,2013-01-05 13:31:00,
2013-01-05 08:33:00,32.1,19.8,30.21,West,273,7.0,7.0,60,0.00,,,0.00,VWS V14.01,2013-01-05 13:33:00,
2013-01-05 08:36:00,32.2,19.9,30.21,WSW,248,12.0,13.0,60,0.00,,,0.00,VWS V14.01,2013-01-05 13:36:00,
2013-01-05 08:38:00,32.2,19.5,30.21,West,271,5.0,13.0,59,0.00,,,0.00,VWS V14.01,2013-01-05 13:38:00,
2013-01-05 08:39:00,32.4,19.7,30.21,WNW,296,6.0,13.0,59,0.00,,,0.00,VWS V14.01,2013-01-05 13:39:00,
2013-01-05 08:41:00,32.4,19.7,30.21,West,278,9.0,13.0,59,0.00,,,0.00,VWS V14.01,2013-01-05 13:41:00,
2013-01-05 08:44:00,32.5,19.8,30.21,West,264,5.0,13.0,59,0.00,,,0.00,VWS V14.01,2013-01-05 13:44:00,
2013-01-05 08:45:00,32.7,20.0,30.21,West,278,12.0,15.0,59,0.00,,,0.00,VWS V14.01,2013-01-05 13:45:00,
2013-01-05 08:47:00,32.7,20.0,30.21,WNW,292,5.0,17.0,59,0.00,,,0.00,VWS V14.01,2013-01-05 13:47:00,
2013-01-05 08:50:00,32.9,19.8,30.21,SW,225,9.0,17.0,58,0.00,,,0.00,VWS V14.01,2013-01-05 13:50:00,
2013-01-05 08:54:00,33.2,19.6,30.21,West,271,12.0,17.0,57,0.00,,,0.00,VWS V14.01,2013-01-05 13:54:00,
2013-01-05 08:55:00,33.2,19.6,30.21,West,281,8.0,17.0,57,0.00,,,0.00,VWS V14.01,2013-01-05 13:55:00,
2013-01-05 08:57:00,33.4,19.8,30.21,West,271,1.0,17.0,57,0.00,,,0.00,VWS V14.01,2013-01-05 13:57:00,
2013-01-05 09:00:00,33.8,19.8,30.21,West,275,8.0,17.0,56,0.00,,,0.00,VWS V14.01,2013-01-05 14:00:00,
2013-01-05 09:01:00,33.5,19.9,30.21,WNW,284,10.0,17.0,57,0.00,,,0.00,VWS V14.01,2013-01-05 14:01:00,
2013-01-05 09:02:00,33.7,20.1,30.21,West,275,7.0,17.0,57,0.00,,,0.00,VWS V14.01,2013-01-05 14:02:00,
2013-01-05 09:03:00,33.8,19.8,30.21,West,275,8.0,17.0,56,0.00,,,0.00,VWS V14.01,2013-01-05 14:03:00,
2013-01-05 09:07:00,34.3,19.8,30.21,WSW,249,3.0,14.0,55,0.00,,,0.00,VWS V14.01,2013-01-05 14:07:00,
2013-01-05 09:08:00,34.3,19.8,30.21,West,271,7.0,14.0,55,0.00,,,0.00,VWS V14.01,2013-01-05 14:08:00,
2013-01-05 09:09:00,34.4,19.9,30.21,WSW,252,2.0,14.0,55,0.00,,,0.00,VWS V14.01,2013-01-05 14:09:00,
2013-01-05 09:14:00,34.9,20.0,30.21,WSW,250,13.0,14.0,54,0.00,,,0.00,VWS V14.01,2013-01-05 14:14:00,
2013-01-05 09:15:00,35.0,20.5,30.21,West,275,12.0,14.0,55,0.00,,,0.00,VWS V14.01,2013-01-05 14:15:00,
2013-01-05 09:18:00,35.3,20.3,30.21,West,264,6.0,14.0,54,0.00,,,0.00,VWS V14.01,2013-01-05 14:18:00,
2013-01-05 09:19:00,35.3,19.9,30.21,West,279,10.0,14.0,53,0.00,,,0.00,VWS V14.01,2013-01-05 14:19:00,
2013-01-05 09:20:00,35.5,20.5,30.21,West,264,0.0,14.0,54,0.00,,,0.00,VWS V14.01,2013-01-05 14:20:00,
2013-01-05 09:23:00,35.5,20.1,30.21,WNW,291,11.0,14.0,53,0.00,,,0.00,VWS V14.01,2013-01-05 14:23:00,
2013-01-05 09:27:00,35.5,20.5,30.21,West,281,3.0,17.0,54,0.00,,,0.00,VWS V14.01,2013-01-05 14:27:00,
2013-01-05 09:28:00,35.5,20.1,30.21,WNW,289,7.0,17.0,53,0.00,,,0.00,VWS V14.01,2013-01-05 14:28:00,
2013-01-05 09:30:00,35.6,20.2,30.21,WNW,284,3.0,17.0,53,0.00,,,0.00,VWS V14.01,2013-01-05 14:30:00,
2013-01-05 09:31:00,35.6,20.2,30.21,WNW,302,4.0,17.0,53,0.00,,,0.00,VWS V14.01,2013-01-05 14:31:00,
2013-01-05 09:33:00,35.6,20.2,30.21,West,275,6.0,7.0,53,0.00,,,0.00,VWS V14.01,2013-01-05 14:33:00,
2013-01-05 09:34:00,35.6,20.2,30.21,NW,311,6.0,12.0,53,0.00,,,0.00,VWS V14.01,2013-01-05 14:34:00,
2013-01-05 09:36:00,35.8,20.4,30.21,WNW,296,12.0,15.0,53,0.00,,,0.00,VWS V14.01,2013-01-05 14:36:00,
2013-01-05 09:39:00,35.9,20.9,30.21,WSW,244,12.0,15.0,54,0.00,,,0.00,VWS V14.01,2013-01-05 14:39:00,
2013-01-05 09:40:00,36.0,20.5,30.21,WNW,296,6.0,15.0,53,0.00,,,0.00,VWS V14.01,2013-01-05 14:40:00,
2013-01-05 09:45:00,36.5,20.6,30.21,NW,315,5.0,15.0,52,0.00,,,0.00,VWS V14.01,2013-01-05 14:45:00,
2013-01-05 09:46:00,36.6,20.6,30.21,WNW,303,11.0,15.0,52,0.00,,,0.00,VWS V14.01,2013-01-05 14:46:00,
2013-01-05 09:47:00,36.6,20.6,30.21,NW,319,4.0,15.0,52,0.00,,,0.00,VWS V14.01,2013-01-05 14:47:00,
2013-01-05 09:51:00,36.8,20.8,30.21,West,271,8.0,15.0,52,0.00,,,0.00,VWS V14.01,2013-01-05 14:51:00,
2013-01-05 09:52:00,36.9,20.9,30.21,West,259,9.0,15.0,52,0.00,,,0.00,VWS V14.01,2013-01-05 14:52:00,
2013-01-05 09:56:00,37.0,21.0,30.21,WNW,298,6.0,15.0,52,0.00,,,0.00,VWS V14.01,2013-01-05 14:56:00,
2013-01-05 09:57:00,37.0,21.0,30.21,WSW,247,1.0,15.0,52,0.00,,,0.00,VWS V14.01,2013-01-05 14:57:00,
2013-01-05 10:00:00,37.2,20.8,30.21,WNW,300,3.0,17.0,51,0.00,,,0.00,VWS V14.01,2013-01-05 15:00:00,
2013-01-05 10:30:00,38.6,21.1,30.22,West,280,9.0,18.0,49,0.00,,,0.00,VWS V14.01,2013-01-05 15:30:00,
2013-01-05 10:31:00,38.8,21.8,30.22,West,277,7.0,18.0,50,0.00,,,0.00,VWS V14.01,2013-01-05 15:31:00,
2013-01-05 10:32:00,38.8,21.3,30.23,NW,304,8.0,18.0,49,0.00,,,0.00,VWS V14.01,2013-01-05 15:32:00,
2013-01-05 10:35:00,38.6,21.1,30.23,West,279,9.0,17.0,49,0.00,,,0.00,VWS V14.01,2013-01-05 15:35:00,
2013-01-05 10:38:00,38.6,21.1,30.23,West,269,7.0,17.0,49,0.00,,,0.00,VWS V14.01,2013-01-05 15:38:00,
2013-01-05 10:40:00,38.8,21.3,30.23,West,273,11.0,17.0,49,0.00,,,0.00,VWS V14.01,2013-01-05 15:40:00,
2013-01-05 10:41:00,38.8,21.3,30.23,WNW,290,3.0,17.0,49,0.00,,,0.00,VWS V14.01,2013-01-05 15:41:00,
2013-01-05 10:42:00,38.6,21.1,30.23,WNW,296,0.0,17.0,49,0.00,,,0.00,VWS V14.01,2013-01-05 15:42:00,
2013-01-05 10:44:00,38.6,21.1,30.23,WNW,286,9.0,17.0,49,0.00,,,0.00,VWS V14.01,2013-01-05 15:44:00,
2013-01-05 10:46:00,38.6,21.6,30.23,NNW,327,2.0,17.0,50,0.00,,,0.00,VWS V14.01,2013-01-05 15:46:00,
2013-01-05 10:48:00,38.9,21.9,30.23,WNW,296,8.0,17.0,50,0.00,,,0.00,VWS V14.01,2013-01-05 15:48:00,
2013-01-05 10:49:00,38.9,21.4,30.23,WNW,298,7.0,17.0,49,0.00,,,0.00,VWS V14.01,2013-01-05 15:49:00,
2013-01-05 10:54:00,39.1,21.6,30.23,WNW,287,4.0,17.0,49,0.00,,,0.00,VWS V14.01,2013-01-05 15:54:00,
2013-01-05 10:56:00,39.2,21.7,30.23,West,271,5.0,17.0,49,0.00,,,0.00,VWS V14.01,2013-01-05 15:56:00,
2013-01-05 10:58:00,39.2,21.7,30.23,WNW,298,8.0,17.0,49,0.00,,,0.00,VWS V14.01,2013-01-05 15:58:00,
2013-01-05 10:59:00,39.2,21.7,30.23,West,274,14.0,17.0,49,0.00,,,0.00,VWS V14.01,2013-01-05 15:59:00,
2013-01-05 11:00:00,39.1,21.6,30.24,WNW,288,7.0,17.0,49,0.00,,,0.00,VWS V14.01,2013-01-05 16:00:00,
2013-01-05 11:02:00,39.1,21.6,30.24,WNW,294,4.0,17.0,49,0.00,,,0.00,VWS V14.01,2013-01-05 16:02:00,
2013-01-05 11:04:00,39.1,21.6,30.24,WNW,296,19.0,19.0,49,0.00,,,0.00,VWS V14.01,2013-01-05 16:04:00,
2013-01-05 11:07:00,39.1,22.0,30.24,NW,311,4.0,20.0,50,0.00,,,0.00,VWS V14.01,2013-01-05 16:07:00,
2013-01-05 11:09:00,39.1,22.0,30.24,WNW,288,10.0,20.0,50,0.00,,,0.00,VWS V14.01,2013-01-05 16:09:00,
2013-01-05 11:11:00,39.2,21.7,30.24,West,278,10.0,20.0,49,0.00,,,0.00,VWS V14.01,2013-01-05 16:11:00,
2013-01-05 11:12:00,39.2,21.7,30.24,WNW,300,3.0,20.0,49,0.00,,,0.00,VWS V14.01,2013-01-05 16:12:00,
2013-01-05 11:17:00,39.3,21.8,30.24,West,281,5.0,20.0,49,0.00,,,0.00,VWS V14.01,2013-01-05 16:17:00,
2013-01-05 11:18:00,39.5,21.9,30.24,NW,315,5.0,20.0,49,0.00,,,0.00,VWS V14.01,2013-01-05 16:18:00,
2013-01-05 11:22:00,39.3,21.8,30.24,NW,319,2.0,20.0,49,0.00,,,0.00,VWS V14.01,2013-01-05 16:22:00,
2013-01-05 11:23:00,39.5,21.9,30.24,WNW,293,7.0,20.0,49,0.00,,,0.00,VWS V14.01,2013-01-05 16:23:00,
2013-01-05 11:25:00,39.5,21.9,30.24,WNW,297,9.0,20.0,49,0.00,,,0.00,VWS V14.01,2013-01-05 16:25:00,
2013-01-05 11:27:00,39.5,21.9,30.24,WNW,296,15.0,20.0,49,0.00,,,0.00,VWS V14.01,2013-01-05 16:27:00,
2013-01-05 11:28:00,39.5,21.5,30.24,NW,316,13.0,20.0,48,0.00,,,0.00,VWS V14.01,2013-01-05 16:28:00,
2013-01-05 11:30:00,39.5,21.9,30.24,WNW,282,1.0,20.0,49,0.00,,,0.00,VWS V14.01,2013-01-05 16:30:00,
2013-01-05 11:33:00,39.6,22.0,30.22,WNW,297,12.0,12.0,49,0.00,,,0.00,VWS V14.01,2013-01-05 16:33:00,
2013-01-05 11:34:00,39.8,22.2,30.22,West,277,4.0,15.0,49,0.00,,,0.00,VWS V14.01,2013-01-05 16:34:00,
2013-01-05 11:35:00,39.9,22.3,30.22,NW,315,4.0,15.0,49,0.00,,,0.00,VWS V14.01,2013-01-05 16:35:00,
2013-01-05 11:40:00,40.3,22.2,30.22,WNW,288,2.0,15.0,48,0.00,,,0.00,VWS V14.01,2013-01-05 16:40:00,
2013-01-05 11:42:00,40.5,21.9,30.22,NW,306,9.0,15.0,47,0.00,,,0.00,VWS V14.01,2013-01-05 16:42:00,
2013-01-05 11:43:00,40.3,21.7,30.22,WNW,303,9.0,15.0,47,0.00,,,0.00,VWS V14.01,2013-01-05 16:43:00,
2013-01-05 11:44:00,40.3,21.7,30.22,NW,313,9.0,15.0,47,0.00,,,0.00,VWS V14.01,2013-01-05 16:44:00,
2013-01-05 11:49:00,40.6,22.0,30.21,NW,309,7.0,16.0,47,0.00,,,0.00,VWS V14.01,2013-01-05 16:49:00,
2013-01-05 11:50:00,40.6,22.0,30.21,NW,315,6.0,16.0,47,0.00,,,0.00,VWS V14.01,2013-01-05 16:50:00,
2013-01-05 12:00:00,41.3,22.1,30.21,NNW,336,7.0,18.0,46,0.00,,,0.00,VWS V14.01,2013-01-05 17:00:00,
2013-01-05 12:30:00,41.9,22.1,30.19,NW,309,9.0,18.0,45,0.00,,,0.00,VWS V14.01,2013-01-05 17:30:00,
2013-01-05 13:00:00,43.2,22.8,30.19,NW,316,6.0,14.0,44,0.00,,,0.00,VWS V14.01,2013-01-05 18:00:00,
2013-01-05 13:30:00,43.2,22.2,30.18,NW,309,2.0,14.0,43,0.00,,,0.00,VWS V14.01,2013-01-05 18:30:00,
2013-01-05 14:00:00,43.5,22.5,30.17,WNW,294,0.0,12.0,43,0.00,,,0.00,VWS V14.01,2013-01-05 19:00:00,
2013-01-05 14:30:00,42.5,22.1,30.18,North,360,1.0,11.0,44,0.00,,,0.00,VWS V14.01,2013-01-05 19:30:00,
2013-01-05 15:00:00,42.6,22.2,30.18,WNW,299,6.0,11.0,44,0.00,,,0.00,VWS V14.01,2013-01-05 20:00:00,
2013-01-05 15:30:00,42.2,22.4,30.19,WNW,285,5.0,11.0,45,0.00,,,0.00,VWS V14.01,2013-01-05 20:30:00,
2013-01-05 16:00:00,41.3,22.1,30.19,West,264,0.0,11.0,46,0.00,,,0.00,VWS V14.01,2013-01-05 21:00:00,
2013-01-05 16:30:00,40.3,22.2,30.19,West,263,0.0,10.0,48,0.00,,,0.00,VWS V14.01,2013-01-05 21:30:00,
2013-01-05 17:00:00,39.2,22.6,30.19,WSW,255,0.0,7.0,51,0.00,,,0.00,VWS V14.01,2013-01-05 22:00:00,
2013-01-05 17:30:00,38.0,22.9,30.21,WSW,246,3.0,5.0,54,0.00,,,0.00,VWS V14.01,2013-01-05 22:30:00,
2013-01-05 18:00:00,37.6,22.5,30.21,West,263,0.0,7.0,54,0.00,,,0.00,VWS V14.01,2013-01-05 23:00:00,
2013-01-05 18:30:00,36.8,22.6,30.21,WSW,257,0.0,5.0,56,0.00,,,0.00,VWS V14.01,2013-01-05 23:30:00,
2013-01-05 19:00:00,35.3,22.8,30.22,WSW,256,0.0,4.0,60,0.00,,,0.00,VWS V14.01,2013-01-06 00:00:00,
2013-01-05 19:30:00,35.0,22.9,30.21,WSW,248,4.0,6.0,61,0.00,,,0.00,VWS V14.01,2013-01-06 00:30:00,
2013-01-05 20:00:00,34.7,23.0,30.20,WSW,240,3.0,7.0,62,0.00,,,0.00,VWS V14.01,2013-01-06 01:00:00,
2013-01-05 20:11:00,34.6,22.9,30.20,WSW,242,0.0,0.0,62,0.00,,,0.00,VWS V14.01,2013-01-06 01:11:00,
2013-01-05 20:12:00,34.6,23.3,30.20,WSW,242,0.0,0.0,63,0.00,,,0.00,VWS V14.01,2013-01-06 01:12:00,
2013-01-05 20:13:00,34.6,23.3,30.20,WSW,242,0.0,0.0,63,0.00,,,0.00,VWS V14.01,2013-01-06 01:13:00,
2013-01-05 20:18:00,34.4,23.1,30.19,WSW,242,0.0,0.0,63,0.00,,,0.00,VWS V14.01,2013-01-06 01:18:00,
2013-01-05 20:19:00,34.4,23.1,30.19,WSW,242,0.0,0.0,63,0.00,,,0.00,VWS V14.01,2013-01-06 01:19:00,
2013-01-05 20:21:00,34.4,23.1,30.19,WSW,242,2.0,5.0,63,0.00,,,0.00,VWS V14.01,2013-01-06 01:21:00,
2013-01-05 20:23:00,34.4,23.1,30.19,WSW,242,3.0,5.0,63,0.00,,,0.00,VWS V14.01,2013-01-06 01:23:00,
2013-01-05 20:25:00,34.4,23.1,30.19,WSW,242,0.0,5.0,63,0.00,,,0.00,VWS V14.01,2013-01-06 01:25:00,
2013-01-05 20:26:00,34.3,23.0,30.19,WSW,242,0.0,5.0,63,0.00,,,0.00,VWS V14.01,2013-01-06 01:26:00,
2013-01-05 20:29:00,34.3,23.4,30.19,WSW,242,1.0,5.0,64,0.00,,,0.00,VWS V14.01,2013-01-06 01:29:00,
2013-01-05 20:30:00,34.3,23.4,30.19,WSW,242,0.0,5.0,64,0.00,,,0.00,VWS V14.01,2013-01-06 01:30:00,
2013-01-05 20:36:00,34.1,23.2,30.18,WSW,243,0.0,6.0,64,0.00,,,0.00,VWS V14.01,2013-01-06 01:36:00,
2013-01-05 20:38:00,34.1,23.2,30.18,WSW,243,3.0,6.0,64,0.00,,,0.00,VWS V14.01,2013-01-06 01:38:00,
2013-01-05 20:39:00,34.1,23.2,30.18,WSW,244,3.0,6.0,64,0.00,,,0.00,VWS V14.01,2013-01-06 01:39:00,
2013-01-05 20:43:00,34.1,23.2,30.18,SW,235,4.0,7.0,64,0.00,,,0.00,VWS V14.01,2013-01-06 01:43:00,
2013-01-05 20:45:00,34.1,23.2,30.18,SW,236,5.0,7.0,64,0.00,,,0.00,VWS V14.01,2013-01-06 01:45:00,
2013-01-05 20:47:00,34.1,23.2,30.18,WSW,242,4.0,7.0,64,0.00,,,0.00,VWS V14.01,2013-01-06 01:47:00,
2013-01-05 20:49:00,34.1,23.2,30.19,WSW,247,2.0,8.0,64,0.00,,,0.00,VWS V14.01,2013-01-06 01:49:00,
2013-01-05 20:52:00,34.1,23.2,30.19,WSW,241,4.0,8.0,64,0.00,,,0.00,VWS V14.01,2013-01-06 01:52:00,
2013-01-05 20:53:00,34.1,23.2,30.19,SW,236,3.0,8.0,64,0.00,,,0.00,VWS V14.01,2013-01-06 01:53:00,
2013-01-05 20:55:00,34.0,23.1,30.19,WSW,239,4.0,8.0,64,0.00,,,0.00,VWS V14.01,2013-01-06 01:55:00,
2013-01-05 20:58:00,34.0,23.1,30.19,West,259,3.0,9.0,64,0.00,,,0.00,VWS V14.01,2013-01-06 01:58:00,
2013-01-05 20:59:00,34.0,23.1,30.19,West,259,2.0,9.0,64,0.00,,,0.00,VWS V14.01,2013-01-06 01:59:00,
2013-01-05 21:01:00,34.0,23.1,30.19,West,266,4.0,9.0,64,0.00,,,0.00,VWS V14.01,2013-01-06 02:01:00,
2013-01-05 21:03:00,34.0,23.1,30.20,WSW,246,7.0,9.0,64,0.00,,,0.00,VWS V14.01,2013-01-06 02:03:00,
2013-01-05 21:04:00,34.0,23.1,30.20,WSW,245,4.0,7.0,64,0.00,,,0.00,VWS V14.01,2013-01-06 02:04:00,
2013-01-05 21:07:00,34.0,23.1,30.20,WSW,246,3.0,7.0,64,0.00,,,0.00,VWS V14.01,2013-01-06 02:07:00,
2013-01-05 21:08:00,34.0,23.1,30.20,WSW,246,1.0,7.0,64,0.00,,,0.00,VWS V14.01,2013-01-06 02:08:00,
2013-01-05 21:09:00,34.0,23.1,30.20,WSW,246,3.0,7.0,64,0.00,,,0.00,VWS V14.01,2013-01-06 02:09:00,
2013-01-05 21:14:00,34.0,23.1,30.20,WSW,248,7.0,7.0,64,0.00,,,0.00,VWS V14.01,2013-01-06 02:14:00,
2013-01-05 21:15:00,34.0,23.1,30.20,SW,234,4.0,7.0,64,0.00,,,0.00,VWS V14.01,2013-01-06 02:15:00,
2013-01-05 21:19:00,33.8,22.9,30.21,West,264,7.0,8.0,64,0.00,,,0.00,VWS V14.01,2013-01-06 02:19:00,
2013-01-05 21:20:00,33.8,22.9,30.21,WSW,238,0.0,8.0,64,0.00,,,0.00,VWS V14.01,2013-01-06 02:20:00,
2013-01-05 21:21:00,33.8,22.9,30.21,West,266,7.0,10.0,64,0.00,,,0.00,VWS V14.01,2013-01-06 02:21:00,
2013-01-05 21:22:00,33.8,22.9,30.21,West,263,6.0,10.0,64,0.00,,,0.00,VWS V14.01,2013-01-06 02:22:00,
2013-01-05 21:27:00,34.0,23.1,30.21,West,265,2.0,10.0,64,0.00,,,0.00,VWS V14.01,2013-01-06 02:27:00,
2013-01-05 21:28:00,34.0,23.1,30.21,West,266,4.0,10.0,64,0.00,,,0.00,VWS V14.01,2013-01-06 02:28:00,
2013-01-05 21:29:00,34.0,23.1,30.21,West,260,4.0,10.0,64,0.00,,,0.00,VWS V14.01,2013-01-06 02:29:00,
2013-01-05 21:31:00,34.0,23.1,30.21,WSW,241,7.0,10.0,64,0.00,,,0.00,VWS V14.01,2013-01-06 02:31:00,
2013-01-05 21:37:00,34.0,23.1,30.21,WNW,286,6.0,9.0,64,0.00,,,0.00,VWS V14.01,2013-01-06 02:37:00,
2013-01-05 21:38:00,34.0,22.7,30.21,West,261,7.0,9.0,63,0.00,,,0.00,VWS V14.01,2013-01-06 02:38:00,
2013-01-05 21:39:00,34.0,22.7,30.21,West,262,2.0,9.0,63,0.00,,,0.00,VWS V14.01,2013-01-06 02:39:00,
2013-01-05 21:42:00,34.0,22.7,30.21,SW,232,4.0,9.0,63,0.00,,,0.00,VWS V14.01,2013-01-06 02:42:00,
2013-01-05 21:43:00,34.0,22.7,30.21,WSW,248,7.0,9.0,63,0.00,,,0.00,VWS V14.01,2013-01-06 02:43:00,
2013-01-05 21:44:00,34.0,22.7,30.21,West,277,2.0,9.0,63,0.00,,,0.00,VWS V14.01,2013-01-06 02:44:00,
2013-01-05 21:45:00,34.0,22.7,30.21,West,270,4.0,9.0,63,0.00,,,0.00,VWS V14.01,2013-01-06 02:45:00,
2013-01-05 21:48:00,33.8,22.5,30.21,West,275,5.0,10.0,63,0.00,,,0.00,VWS V14.01,2013-01-06 02:48:00,
2013-01-05 21:49:00,33.8,22.5,30.21,WNW,283,0.0,10.0,63,0.00,,,0.00,VWS V14.01,2013-01-06 02:49:00,
2013-01-05 21:51:00,33.8,22.5,30.21,West,267,2.0,11.0,63,0.00,,,0.00,VWS V14.01,2013-01-06 02:51:00,
2013-01-05 21:53:00,33.8,22.5,30.21,WSW,246,0.0,11.0,63,0.00,,,0.00,VWS V14.01,2013-01-06 02:53:00,
2013-01-05 21:54:00,33.8,22.5,30.21,WSW,243,1.0,11.0,63,0.00,,,0.00,VWS V14.01,2013-01-06 02:54:00,
2013-01-05 21:57:00,33.8,22.5,30.21,WSW,250,0.0,11.0,63,0.00,,,0.00,VWS V14.01,2013-01-06 02:57:00,
2013-01-05 22:00:00,33.8,22.5,30.21,WSW,251,0.0,11.0,63,0.00,,,0.00,VWS V14.01,2013-01-06 03:00:00,
2013-01-05 22:01:00,33.7,22.8,30.21,WSW,251,1.0,11.0,64,0.00,,,0.00,VWS V14.01,2013-01-06 03:01:00,
2013-01-05 22:03:00,33.7,22.8,30.18,WSW,251,0.0,11.0,64,0.00,,,0.00,VWS V14.01,2013-01-06 03:03:00,
2013-01-05 22:06:00,33.7,22.8,30.18,WSW,251,0.0,0.0,64,0.00,,,0.00,VWS V14.01,2013-01-06 03:06:00,
2013-01-05 22:08:00,33.7,22.8,30.18,WSW,251,2.0,2.0,64,0.00,,,0.00,VWS V14.01,2013-01-06 03:08:00,
2013-01-05 22:09:00,33.7,22.8,30.18,WSW,251,0.0,2.0,64,0.00,,,0.00,VWS V14.01,2013-01-06 03:09:00,
2013-01-05 22:10:00,33.7,22.8,30.18,WSW,251,0.0,2.0,64,0.00,,,0.00,VWS V14.01,2013-01-06 03:10:00,
2013-01-05 22:15:00,33.5,22.6,30.18,WSW,251,4.0,4.0,64,0.00,,,0.00,VWS V14.01,2013-01-06 03:15:00,
2013-01-05 22:16:00,33.5,22.6,30.18,WSW,251,0.0,4.0,64,0.00,,,0.00,VWS V14.01,2013-01-06 03:16:00,
2013-01-05 22:18:00,33.5,22.6,30.17,WSW,251,0.0,4.0,64,0.00,,,0.00,VWS V14.01,2013-01-06 03:18:00,
2013-01-05 22:21:00,33.5,22.6,30.17,WSW,251,0.0,4.0,64,0.00,,,0.00,VWS V14.01,2013-01-06 03:21:00,
2013-01-05 22:22:00,33.5,22.6,30.17,WSW,251,0.0,4.0,64,0.00,,,0.00,VWS V14.01,2013-01-06 03:22:00,
2013-01-05 22:26:00,33.5,22.6,30.17,WSW,251,0.0,4.0,64,0.00,,,0.00,VWS V14.01,2013-01-06 03:26:00,
2013-01-05 22:28:00,33.7,22.8,30.17,WSW,251,0.0,4.0,64,0.00,,,0.00,VWS V14.01,2013-01-06 03:28:00,
2013-01-05 22:30:00,33.7,22.8,30.17,WSW,251,0.0,4.0,64,0.00,,,0.00,VWS V14.01,2013-01-06 03:30:00,
2013-01-05 22:31:00,33.7,22.8,30.17,WSW,251,0.0,4.0,64,0.00,,,0.00,VWS V14.01,2013-01-06 03:31:00,
2013-01-05 22:34:00,33.7,22.8,30.18,WSW,252,0.0,0.0,64,0.00,,,0.00,VWS V14.01,2013-01-06 03:34:00,
2013-01-05 22:37:00,33.7,22.8,30.18,WSW,252,0.0,4.0,64,0.00,,,0.00,VWS V14.01,2013-01-06 03:37:00,
2013-01-05 22:38:00,33.7,22.8,30.18,WSW,252,0.0,4.0,64,0.00,,,0.00,VWS V14.01,2013-01-06 03:38:00,
2013-01-05 22:41:00,33.7,22.8,30.18,WSW,252,0.0,4.0,64,0.00,,,0.00,VWS V14.01,2013-01-06 03:41:00,
2013-01-05 22:42:00,33.7,22.8,30.18,WSW,252,0.0,4.0,64,0.00,,,0.00,VWS V14.01,2013-01-06 03:42:00,
2013-01-05 22:43:00,33.7,22.8,30.18,WSW,252,0.0,4.0,64,0.00,,,0.00,VWS V14.01,2013-01-06 03:43:00,
2013-01-05 22:45:00,33.7,22.8,30.18,WSW,252,4.0,4.0,64,0.00,,,0.00,VWS V14.01,2013-01-06 03:45:00,
2013-01-05 22:50:00,33.7,22.8,30.19,WSW,252,5.0,5.0,64,0.00,,,0.00,VWS V14.01,2013-01-06 03:50:00,
2013-01-05 22:51:00,33.7,22.8,30.19,WSW,252,3.0,6.0,64,0.00,,,0.00,VWS V14.01,2013-01-06 03:51:00,
2013-01-05 22:52:00,33.7,22.8,30.19,WSW,252,3.0,6.0,64,0.00,,,0.00,VWS V14.01,2013-01-06 03:52:00,
2013-01-05 22:54:00,33.7,22.8,30.19,WSW,252,4.0,6.0,64,0.00,,,0.00,VWS V14.01,2013-01-06 03:54:00,
2013-01-05 22:55:00,33.7,22.8,30.19,WSW,252,0.0,6.0,64,0.00,,,0.00,VWS V14.01,2013-01-06 03:55:00,
2013-01-05 22:58:00,33.7,22.8,30.19,WSW,252,4.0,6.0,64,0.00,,,0.00,VWS V14.01,2013-01-06 03:58:00,
2013-01-05 22:59:00,33.7,22.8,30.19,WSW,252,4.0,6.0,64,0.00,,,0.00,VWS V14.01,2013-01-06 03:59:00,
2013-01-05 23:00:00,33.7,22.8,30.19,WSW,252,0.0,6.0,64,0.00,,,0.00,VWS V14.01,2013-01-06 04:00:00,
2013-01-05 23:02:00,33.7,22.8,30.18,WSW,252,0.0,6.0,64,0.00,,,0.00,VWS V14.01,2013-01-06 04:02:00,
2013-01-05 23:04:00,33.7,22.8,30.18,WSW,252,2.0,4.0,64,0.00,,,0.00,VWS V14.01,2013-01-06 04:04:00,
2013-01-05 23:06:00,33.7,22.8,30.18,WSW,252,0.0,4.0,64,0.00,,,0.00,VWS V14.01,2013-01-06 04:06:00,
2013-01-05 23:09:00,33.7,22.8,30.18,WSW,252,0.0,4.0,64,0.00,,,0.00,VWS V14.01,2013-01-06 04:09:00,
2013-01-05 23:11:00,33.7,22.8,30.18,WSW,252,0.0,4.0,64,0.00,,,0.00,VWS V14.01,2013-01-06 04:11:00,
2013-01-05 23:12:00,33.8,22.9,30.18,WSW,252,0.0,4.0,64,0.00,,,0.00,VWS V14.01,2013-01-06 04:12:00,
2013-01-05 23:18:00,33.8,22.9,30.17,WSW,252,0.0,4.0,64,0.00,,,0.00,VWS V14.01,2013-01-06 04:18:00,
2013-01-05 23:19:00,33.8,22.9,30.17,WSW,252,0.0,4.0,64,0.00,,,0.00,VWS V14.01,2013-01-06 04:19:00,
2013-01-05 23:20:00,33.8,22.9,30.17,WSW,252,0.0,4.0,64,0.00,,,0.00,VWS V14.01,2013-01-06 04:20:00,
2013-01-05 23:25:00,33.8,23.3,30.17,WSW,252,0.0,4.0,65,0.00,,,0.00,VWS V14.01,2013-01-06 04:25:00,
2013-01-05 23:26:00,33.8,23.3,30.17,WSW,252,0.0,4.0,65,0.00,,,0.00,VWS V14.01,2013-01-06 04:26:00,
2013-01-05 23:27:00,33.8,23.3,30.17,WSW,252,0.0,4.0,65,0.00,,,0.00,VWS V14.01,2013-01-06 04:27:00,
2013-01-05 23:30:00,33.8,23.3,30.17,WSW,252,0.0,4.0,65,0.00,,,0.00,VWS V14.01,2013-01-06 04:30:00,
2013-01-05 23:31:00,33.8,23.3,30.17,WSW,252,0.0,4.0,65,0.00,,,0.00,VWS V14.01,2013-01-06 04:31:00,
2013-01-05 23:32:00,33.8,23.3,30.17,WSW,252,0.0,4.0,65,0.00,,,0.00,VWS V14.01,2013-01-06 04:32:00,
2013-01-05 23:34:00,33.8,23.3,30.15,WSW,252,0.0,0.0,65,0.00,,,0.00,VWS V14.01,2013-01-06 04:34:00,
2013-01-05 23:36:00,34.0,23.5,30.15,WSW,252,0.0,0.0,65,0.00,,,0.00,VWS V14.01,2013-01-06 04:36:00,
2013-01-05 23:40:00,34.0,23.5,30.15,WSW,252,0.0,0.0,65,0.00,,,0.00,VWS V14.01,2013-01-06 04:40:00,
2013-01-05 23:41:00,34.0,23.5,30.15,WSW,252,0.0,0.0,65,0.00,,,0.00,VWS V14.01,2013-01-06 04:41:00,
2013-01-05 23:43:00,34.0,23.5,30.15,WSW,252,0.0,0.0,65,0.00,,,0.00,VWS V14.01,2013-01-06 04:43:00,
2013-01-05 23:44:00,34.0,23.5,30.15,WSW,252,0.0,0.0,65,0.00,,,0.00,VWS V14.01,2013-01-06 04:44:00,
2013-01-05 23:46:00,34.0,23.5,30.15,WSW,252,0.0,0.0,65,0.00,,,0.00,VWS V14.01,2013-01-06 04:46:00,
2013-01-05 23:48:00,34.1,23.6,30.15,WSW,252,0.0,0.0,65,0.00,,,0.00,VWS V14.01,2013-01-06 04:48:00,
2013-01-05 23:51:00,34.1,23.6,30.15,WSW,252,0.0,0.0,65,0.00,,,0.00,VWS V14.01,2013-01-06 04:51:00,
2013-01-05 23:53:00,34.1,23.6,30.15,WSW,252,0.0,0.0,65,0.00,,,0.00,VWS V14.01,2013-01-06 04:53:00,
2013-01-05 23:57:00,34.3,23.8,30.15,WSW,257,6.0,7.0,65,0.00,,,0.00,VWS V14.01,2013-01-06 04:57:00,
2013-01-05 23:58:00,34.3,23.8,30.15,West,270,6.0,8.0,65,0.00,,,0.00,VWS V14.01,2013-01-06 04:58:00,